RADUGA-1M 3 [+]

Last updated on Nov. 17, 2019, 4:20 a.m. UTC

1 39375U 13062A   19318.92157120  .00000169  00000-0  10000-3 0  9998
2 39375   0.0579  92.1765 0002847 200.8527 127.5175  1.00274820 22001
UTC
Height (km)
Latitude
Longitude
Inclination
Orbital Period
UTC large
Height (km)
Speed (km/s)
/
Latitude / Longitude
Inclination (degrees)
Orbital Period (minutes)
Azimuth
Elevation
Range (km)
Doppler Factor
iOS Compass Heading
iOS Angle

Next 30 passes for location: Hong Kong

Rise time Rise Azimuth (degrees) Set time Set Azimuth (degrees) Duration Max altitude (degrees)

No matching passes for this satellites